This demonstration page uses our WeatherBlox Daily Observations layout. Learn more.

Left ArrowRight Arrow

Hourly Observations for March 1, 2017

Temp ( °F °C ) Dew Point ( °F °C ) Humidity (%) Winds ( mph kmh ) Pressure ( in mb ) Visibility ( mi km ) Precip ( " mm )
12:52 am 00:52 Clear with Nearby Thunderstorms 70 21.1 59 15 68 68 W 23 37 29.57 1001 10 16 0.00 0.00
12:58 am 00:58 Partly Cloudy with Thunderstorms 61 16 48 9 63 63 NNW 30 48 29.59 1002 10 16 0.00 0.00
1:09 am 01:09 Mostly Cloudy with Thunderstorms 59 15 46 7.8 62 62 NW 21 33 29.62 1003 7 11 0.00 0.00
1:52 am 01:52 Mostly Clear with Nearby Thunderstorms 54 12.2 49 9.4 83 83 WSW 12 19 29.63 1003 10 16 0.19 4.83
2:19 am 02:19 Mostly Cloudy with Nearby Thunderstorms 52 11.1 47 8.3 83 83 WNW 15 24 29.71 1006 10 16 0.00 0.00
2:26 am 02:26 Cloudy 51 10.6 46 7.8 83 83 WNW 18 30 29.71 1006 10 16 0.00 0.00
2:52 am 02:52 Cloudy 48 8.9 45 7.2 89 89 NW 15 24 29.72 1006 8 13 0.00 0.00
3:52 am 03:52 Cloudy 46 7.8 42 5.6 86 86 WNW 13 20 29.78 1009 7 11 0.00 0.00
4:06 am 04:06 Cloudy 46 8 41 5 82 82 WNW 13 20 29.85 1011 7 11 0.00 0.00
4:43 am 04:43 Mostly Cloudy 44 6.7 40 4.4 85 85 WNW 13 20 29.88 1012 7 11 0.00 0.00
4:50 am 04:50 Partly Cloudy 45 7 39 4 81 81 WNW 10 17 29.91 1013 7 11 0.00 0.00
4:52 am 04:52 Partly Cloudy 44 6.7 39 3.9 83 83 WNW 12 19 29.86 1011 7 11 0.00 0.00
5:52 am 05:52 Mostly Clear with Mist and Fog 42 5.6 38 3.3 85 85 WNW 15 24 29.92 1013 6 10 0.00 0.00
6:52 am 06:52 Sunny 40 4.4 36 2.2 86 86 W 14 22 29.94 1014 7 11 0.00 0.00
7:52 am 07:52 Sunny 41 5 36 2.2 82 82 WNW 17 28 29.96 1015 9 14 0.00 0.00
8:52 am 08:52 Sunny 43 6.1 33 0.6 68 68 WNW 13 20 30.00 1016 10 16 0.00 0.00
9:52 am 09:52 Mostly Sunny 45 7.2 33 0.6 63 63 W 17 28 30.03 1017 10 16 0.00 0.00
10:52 am 10:52 Sunny 47 8.3 32 0 56 56 W 22 35 30.06 1018 10 16 0.00 0.00
11:52 am 11:52 Sunny 49 9.4 28 -2.2 44 44 WNW 16 26 30.08 1019 10 16 0.00 0.00
12:52 pm 12:52 Sunny 50 10 28 -2.2 43 43 undefined N/A 30.08 1019 10 16 0.00 0.00
1:52 pm 13:52 Sunny 53 11.7 26 -3.3 35 35 WNW 16 26 30.09 1019 10 16 0.00 0.00
2:52 pm 14:52 Sunny 53 11.7 20 -6.7 27 27 NW 21 33 30.11 1020 10 16 0.00 0.00
3:52 pm 15:52 Sunny 53 11.7 17 -8.3 24 24 WNW 17 28 30.14 1021 10 16 0.00 0.00
4:52 pm 16:52 Sunny 52 11.1 16 -8.9 24 24 WNW 15 24 30.16 1021 10 16 0.00 0.00
5:52 pm 17:52 Sunny 68 20 59 15 73 73 SSW 16 26 29.62 1003 8 13 0.00 0.00
6:52 pm 18:52 Clear 44 6.7 20 -6.7 38 38 NW 7 11 30.21 1023 10 16 0.00 0.00
7:52 pm 19:52 Clear 42 5.6 20 -6.7 41 41 NW 6 9 30.22 1023 10 16 0.00 0.00
8:52 pm 20:52 Clear 37 2.8 22 -5.6 54 54 WNW 3 6 30.24 1024 10 16 0.00 0.00
9:52 pm 21:52 Clear 40 4.4 20 -6.7 45 45 WNW 5 7 30.26 1025 10 16 0.00 0.00
10:52 pm 22:52 Clear 36 2.2 21 -6.1 55 55 NNW 6 9 30.29 1026 10 16 0.00 0.00
11:52 pm 23:52 Clear 36 2.2 21 -6.1 55 55 NNW 6 9 30.29 1026 10 16 0.00 0.00

Powered by AerisWeather